DW9162 Weather Reports


Display with metric or nautical units.
time (UTC)temp
F
wind
direction
speed
MPH
gust
MPH
rain 1hr
in
rain 24hr
in
rain mn
in
humidity
%
barometer
mb
20260906120013 74 350 0.0 0.0 0.00 0.00 0.00 92 1011.4
20260906114511 74 350 0.0 0.0 0.00 0.00 0.00 92 1011.2
20260906113011 74 350 0.0 0.0 0.00 0.00 0.00 91 1011.2
20260906111519 74 350 0.0 0.0 0.00 0.00 0.00 91 1011.2
20260906110014 74 350 0.0 0.0 0.00 0.00 0.00 91 1011.2
20260906104514 74 350 0.0 0.0 0.00 0.00 0.00 91 1011.2
20260906103009 74 350 0.0 0.0 0.00 0.00 0.00 91 1011.2
20260906101508 74 350 0.0 0.0 0.00 0.00 0.00 91 1011.2
20260906100010 74 350 0.0 0.0 0.00 0.00 0.00 91 1011.2
20260906094517 74 350 0.0 0.0 0.00 0.00 0.00 92 1011.1
20260906093009 74 350 0.0 0.0 0.00 0.00 0.00 92 1011.2
20260906091517 74 350 0.0 0.0 0.00 0.00 0.00 92 1011.2
20260906090006 73 350 0.0 0.0 0.00 0.00 0.00 91 1011.2
20260906084516 73 350 0.0 0.0 0.00 0.00 0.00 91 1011.1
20260906083009 73 350 0.0 0.0 0.00 0.00 0.00 90 1011.0
20260906081517 73 350 0.0 0.0 0.00 0.00 0.00 90 1010.9
20260906080004 74 350 0.0 0.0 0.00 0.00 0.00 90 1010.9
20260906074504 74 350 0.0 0.0 0.00 0.00 0.00 90 1010.8
20260906073002 74 350 0.0 0.0 0.00 0.00 0.00 91 1010.8
20260906071501 73 350 0.0 0.0 0.00 0.00 0.00 90 1011.0
20260906070000 73 350 0.0 0.0 0.00 0.00 0.00 90 1010.9
20260906064601 73 350 0.0 0.0 0.00 0.00 0.00 90 1011.0
20260906063101 73 350 0.0 0.0 0.00 0.00 0.00 89 1010.9
20260906061556 73 350 0.0 0.0 0.00 0.00 0.00 88 1011.1
20260906060055 73 350 0.0 0.0 0.00 0.00 0.00 87 1011.2
20260906054555 73 350 0.0 0.0 0.00 0.00 0.00 87 1011.4
20260906053050 74 350 0.0 0.0 0.00 0.00 0.00 87 1011.4
20260906051553 74 350 0.0 0.0 0.00 0.00 0.00 87 1011.8
20260906050111 74 350 0.0 0.0 0.00 0.00 0.00 87 1011.7
20260906044553 74 350 0.0 0.0 0.00 0.00 0.00 86 1011.8
20260906043050 74 350 0.0 0.0 0.00 0.00 0.00 87 1011.7
20260906041542 75 350 0.0 0.0 0.00 0.00 0.00 86 1011.7
20260906040045 75 350 0.0 0.0 0.00 0.00 0.00 85 1011.7
20260906034543 75 350 0.0 0.0 0.00 0.00 0.00 86 1011.8
20260906033040 75 350 0.0 0.0 0.00 0.00 0.00 85 1011.8
20260906031543 76 350 0.0 0.0 0.00 0.00 0.00 85 1012.2
20260906030039 76 350 0.0 0.0 0.00 0.00 0.00 85 1012.2
20260906024539 76 350 0.0 0.0 0.00 0.00 0.00 85 1012.1
20260906023038 76 360 0.0 0.0 0.00 0.00 0.00 85 1012.3
20260906021536 76 360 0.0 0.0 0.00 0.00 0.00 85 1012.2
20260906020037 76 360 0.0 0.0 0.00 0.00 0.00 85 1012.2
20260906014536 76 360 0.0 0.0 0.00 0.00 0.00 85 1011.9
20260906013036 77 360 0.0 0.0 0.00 0.00 0.00 84 1011.9
20260906011537 77 316 0.0 0.0 0.00 0.00 0.00 83 1011.8
20260906010035 77 316 0.0 0.0 0.00 0.00 0.00 84 1010.8
20260906004537 78 316 0.0 0.0 0.00 0.00 0.00 83 1010.5
20260906003034 78 316 0.0 0.0 0.00 0.00 0.00 82 1010.4
20260906001535 78 316 0.0 0.0 0.00 0.00 0.00 82 1010.3
20260906000033 79 320 0.0 1.0 0.00 0.00 0.00 81 1010.0
20260905234533 79 128 0.0 1.0 0.00 0.00 0.00 79 1009.7
20260905233032 79 150 0.0 0.0 0.00 0.00 0.00 78 1010.0
20260905231531 80 150 0.0 0.0 0.00 0.00 0.00 77 1009.8
20260905230031 80 207 0.0 2.0 0.00 0.00 0.00 76 1010.2
20260905224530 80 82 0.0 5.0 0.00 0.00 0.00 76 1010.4
20260905223030 80 87 0.0 3.0 0.00 0.00 0.00 78 1010.4
20260905221528 80 76 0.0 3.0 0.00 0.00 0.00 77 1010.0
20260905220029 81 355 0.0 3.0 0.00 0.00 0.00 70 1009.9
20260905214529 87 38 2.0 7.0 0.00 0.00 0.00 55 1009.9
20260905213026 101 84 0.0 4.0 0.00 0.00 0.00 46 1009.3
20260905211525 101 238 0.0 3.0 0.00 0.00 0.00 42 1008.9
20260905210028 101 111 0.0 3.0 0.00 0.00 0.00 44 1009.0
20260905204521 100 209 2.0 5.0 0.00 0.00 0.00 44 1009.3
20260905203020 99 279 0.0 2.0 0.00 0.00 0.00 46 1009.6
20260905201522 100 171 0.0 2.0 0.00 0.00 0.00 44 1009.7
20260905200028 101 254 0.0 5.0 0.00 0.00 0.00 44 1009.8
20260905194514 101 209 0.0 3.0 0.00 0.00 0.00 43 1009.9
20260905193024 100 163 0.0 0.0 0.00 0.00 0.00 44 1010.1
20260905191508 99 228 2.0 5.0 0.00 0.00 0.00 45 1010.3
20260905190011 98 302 0.0 5.0 0.00 0.00 0.00 48 1010.6
20260905184507 97 93 0.0 4.0 0.00 0.00 0.00 48 1010.9
20260905183001 97 84 0.0 1.0 0.00 0.00 0.00 49 1011.0
20260905181601 98 325 0.0 2.0 0.00 0.00 0.00 51 1011.2
20260905180058 97 199 0.0 4.0 0.00 0.00 0.00 49 1011.3
20260905174558 96 93 0.0 3.0 0.00 0.00 0.00 50 1011.5
20260905173100 95 161 0.0 3.0 0.00 0.00 0.00 56 1011.8
20260905171548 95 271 0.0 2.0 0.00 0.00 0.00 53 1012.1
20260905170047 94 119 0.0 3.0 0.00 0.00 0.00 54 1012.1
20260905164540 93 184 1.0 5.0 0.00 0.00 0.00 55 1012.4
20260905163040 91 234 0.0 2.0 0.00 0.00 0.00 60 1012.3
20260905161533 90 246 0.0 2.0 0.00 0.00 0.00 61 1012.7
20260905160045 90 236 0.0 4.0 0.00 0.00 0.00 61 1013.0
20260905154526 88 286 0.0 2.0 0.00 0.00 0.00 65 1013.1
20260905153024 88 228 0.0 3.0 0.00 0.00 0.00 65 1013.2
20260905151521 87 258 0.0 4.0 0.00 0.00 0.00 67 1013.3
20260905150025 86 289 0.0 4.0 0.00 0.00 0.00 67 1013.2
20260905144536 85 209 0.0 3.0 0.00 0.00 0.00 69 1013.3
20260905143019 84 241 0.0 2.0 0.00 0.00 0.00 73 1013.4
20260905141507 83 288 0.0 3.0 0.00 0.00 0.00 76 1013.5
20260905140005 81 239 0.0 3.0 0.00 0.00 0.00 82 1013.6
20260905134607 80 223 0.0 2.0 0.00 0.00 0.00 84 1013.5
20260905134502 80 196 0.0 2.0 0.00 0.00 0.00 84 1013.5
20260905133059 79 218 0.0 0.0 0.00 0.00 0.00 86 1013.6
20260905131559 78 195 0.0 2.0 0.00 0.00 0.00 88 1013.9
20260905130058 77 117 0.0 0.0 0.00 0.00 0.00 91 1013.9
20260905124552 76 117 0.0 0.0 0.00 0.00 0.00 92 1013.9
20260905123056 75 117 0.0 0.0 0.00 0.00 0.00 91 1013.7
20260905121548 75 117 0.0 0.0 0.00 0.00 0.00 90 1013.6